Home > Weather > Witzenhausen > Past weeks

Flag for Germany Weather for the Past 2 Weeks in Witzenhausen, Hesse, Germany

Now
64 °F

Sunny.


Feels Like: 64 °F
Forecast: 41 / 54 °F
Wind: 3 mph from North

Location: Kassel / Calden

Current Time: May 2, 2016 at 3:29:52 PM

Latest Report: May 2, 2016 at 2:50 PM


Visibility: 10 mi

Pressure: 30.18 "Hg

Humidity: 40%

Dew Point: 39 °F

Location of WitzenhausenLocation

Historic Weather in Witzenhausen — Graph

°F

Witzenhausen Temperature Yesterday

Maximum temperature yesterday: 61 °F (at 3:20 PM)
Minimum temperature yesterday: 41 °F (at 7:20 AM)
Average temperature yesterday: 54 °F

High & Low Weather Summary for the Past Weeks

 TemperatureHumidityPressure
High63 °F (Apr 21, 4:20 PM)100% (Apr 20, 6:50 AM)30.45 "Hg (Apr 20, 6:50 AM)
Low32 °F (Apr 24, 7:20 PM)32% (Apr 21, 5:20 PM)29.45 "Hg (Apr 26, 1:20 PM)
Average46 °F64%29.99 "Hg
* Reported Apr 17 1:20 PM — May 2 1:50 PM, Witzenhausen, Weather by CustomWeather, © 2016

Note: Actual official high and low records may vary slightly from our data, if they occured in-between our weather recording intervals... More about our weather records

Advertising

Witzenhausen Weather History for the Previous 24 Hours

Scroll right to see more
 ConditionsComfort  
Time TempWeatherWind HumidityBarometerVisibility
1:50 PM
Mon, May 2
61 °FSunny.3 mph42%30.21 "Hg10 mi
1:20 PM61 °FSunny.3 mph45%30.21 "Hg10 mi
12:50 PM61 °FSunny.3 mph45%30.21 "Hg10 mi
12:20 PM61 °FPassing clouds.3 mph48%30.24 "HgN/A
11:50 AM59 °FPassing clouds.3 mph51%30.24 "HgN/A
11:20 AM57 °FPassing clouds.2 mph63%30.24 "HgN/A
10:50 AM55 °FPassing clouds.2 mph67%30.27 "HgN/A
10:20 AM54 °FPassing clouds.2 mph72%30.27 "Hg6 mi
9:50 AM50 °FClear.2 mph82%30.27 "Hg6 mi
9:20 AM48 °FClear.2 mph94%30.27 "Hg6 mi
8:50 AM46 °FSleet. Clear.2 mph100%30.27 "Hg6 mi
8:20 AM45 °FSleet. Clear.1 mph100%30.27 "Hg6 mi
9:20 PM
Sun, May 1
52 °FPassing clouds.6 mph72%30.27 "HgN/A
8:50 PM54 °FPassing clouds.3 mph58%30.27 "HgN/A
8:20 PM55 °FPassing clouds.6 mph59%30.24 "HgN/A
7:50 PM57 °FSunny.7 mph51%30.24 "Hg10 mi
7:20 PM59 °FPassing clouds.8 mph48%30.24 "HgN/A
6:50 PM57 °FScattered clouds.10 mph51%30.24 "HgN/A
6:20 PM61 °FScattered clouds.8 mph48%30.21 "HgN/A
5:50 PM59 °FScattered clouds.9 mph48%30.21 "HgN/A
5:20 PM61 °FScattered clouds.10 mph48%30.21 "HgN/A
4:50 PM61 °FScattered clouds.12 mph48%30.21 "HgN/A
4:20 PM59 °FPassing clouds.13 mph48%30.21 "HgN/A
3:50 PM61 °FPassing clouds.12 mph48%30.21 "HgN/A
3:20 PM61 °FPassing clouds.12 mph48%30.21 "HgN/A
Weather by CustomWeather, © 2016

See weather overviewHow to use our weather pages